Home   Weather   Cochabamba   Past weeks

Flag for Bolivia Past Weather in Cochabamba, Bolivia — Yesterday and Last 2 Weeks

Now
64 °F

Partly cloudy.


Feels Like: 64 °F
Forecast: 64 / 77 °F
Wind: No wind

Location: Cochabamba Airport

Current Time: Dec 5, 2016 at 9:00:37 pm

Latest Report: Dec 5, 2016 at 8:00 pm


Visibility: N/A

Pressure: 30.15 "Hg (22.26 "Hg at 2584m altitude)

Humidity: 60%

Dew Point: 50 °F

Location of CochabambaLocation

Past Weather in Cochabamba — Graph

°F

Cochabamba Temperature Yesterday

Maximum temperature yesterday: 77 °F (at 1:00 pm)
Minimum temperature yesterday: 52 °F (at 5:48 am)
Average temperature yesterday: 65 °F

High & Low Weather Summary for the Past Weeks

 TemperatureHumidityPressure
High86 °F (Nov 23, 2:00 pm)100% (Nov 29, 4:00 am)30.42 "Hg (Nov 29, 4:00 am)
Low52 °F (Dec 4, 5:48 am)10% (Nov 24, 4:00 pm)29.92 "Hg (Nov 23, 4:00 pm)
Average67 °F51%30.19 "Hg
* Reported Nov 20 8:00 pm — Dec 5 8:00 pm, Cochabamba, Weather by CustomWeather, © 2016

Note: Actual official high and low records may vary slightly from our data, if they occured in-between our weather recording intervals... More about our weather records

Advertising

Cochabamba Weather History for the Previous 24 Hours

Scroll right to see more
 ConditionsComfort  
Time TempWeatherWind HumidityBarometerVisibility
8:00 pm
Mon, Dec 5
64 °FPartly cloudy.No wind60%30.15 "HgN/A
7:00 pm64 °FScattered showers. Partly cloudy.7 mph60%30.15 "HgN/A
6:00 pm64 °FThunderstorms. Broken clouds.21 mph56%30.09 "Hg4 mi
5:00 pm75 °FThunderstorms. Broken clouds.17 mph31%30.04 "HgN/A
4:00 pm79 °FThundershowers. Broken clouds.7 mph30%30.01 "HgN/A
3:00 pm81 °FBroken clouds.16 mph24%30.01 "HgN/A
2:00 pm82 °FPartly sunny.9 mph20%30.04 "HgN/A
1:00 pm84 °FPassing clouds.8 mph20%30.09 "HgN/A
12:00 pm81 °FPassing clouds.6 mph24%30.12 "HgN/A
11:00 am77 °FPassing clouds.2 mph30%30.18 "HgN/A
10:00 am73 °FPassing clouds.2 mph36%30.21 "HgN/A
9:00 am70 °FPassing clouds.No wind40%30.24 "Hg4 mi
8:00 am66 °FClear.No wind56%30.24 "Hg4 mi
7:00 am61 °FClear.No wind72%30.21 "Hg5 mi
6:00 am57 °FScattered clouds.3 mph82%30.18 "Hg4 mi
5:00 am59 °FPassing clouds.No wind72%30.18 "Hg5 mi
4:00 am59 °FPassing clouds.3 mph77%30.18 "HgN/A
3:00 am59 °FPartly cloudy.5 mph77%30.18 "HgN/A
2:00 am61 °FPartly cloudy.No wind72%30.21 "HgN/A
1:00 am61 °FPassing clouds.No wind72%30.21 "HgN/A
12:00 am63 °FPassing clouds.No wind64%30.21 "HgN/A
11:00 pm
Sun, Dec 4
66 °FPassing clouds.7 mph56%30.24 "HgN/A
10:00 pm66 °FPassing clouds.6 mph52%30.21 "HgN/A
9:00 pm68 °FPartly cloudy.3 mph46%30.21 "HgN/A
Weather by CustomWeather, © 2016

See weather overviewHow to use our weather pages